Tracking 31027 objects as of 19-Jul-2025
HD Live streaming from Space Station
objects crossing your sky now

STARLINK-11512

Track STARLINK-11512 now!
10-day predictions
STARLINK-11512 is classified as:


NORAD ID: 62517
Int'l Code: 2025-004G
Perigee: 362.3 km
Apogee: 364.6 km
Inclination: 43.0 °
Period: 91.7 minutes
Semi major axis: 6734 km
RCS: Unknown
Launch date: January 8, 2025
Source: United States (US)
Launch site: AIR FORCE EASTERN TEST RANGE (AFETR)
Your satellite tracking list
STARLINK-6351
Track 1 satellite(s)




NASA's NSSDC Master Catalog

Two Line Element Set (TLE):
1 62517U 25004G   25199.83486377  .00095318  00000-0  73587-3 0  9993
2 62517  42.9991  39.9332 0001693 257.2797 102.7882 15.70903437 31342
Source of the keplerian elements: AFSPC